Retour au catalogue

N-1 R/B

ActifLEO
NORAD 8352·ROCKET BODY·🇯🇵 Japan

Lancé Sep 9, 1975 depuis Tanegashima Space Center

Loading…

Prochains Passages (prochaines 24 heures)

TLE

FraisSource: Space-Track

Époque: Sep 14, 2026, 15:09 UTC

1 08352U 75082B   26257.63156434 -.00000060  00000-0  84201-4 0  9990
2 08352  46.9864 132.1486 0084484 176.6427 205.3111 13.61118942536095

Suivez N-1 R/B en temps réel avec AllMySat

Download on the App Store